Weather History for Pensacola, FL

Change the Weather History Date:

Thursday, November 1, 2012

  Actual Average Record
Temperature  
Mean Temperature 68 °F 65 °F  
Max Temperature 78 °F 74 °F 85 °F (1950)
Min Temperature 57 °F 55 °F 30 °F (1993)
Degree Days  
Heating Degree Days 0 3  
Month to date heating degree days 0 3  
Since 1 July heating degree days 29 41  
Cooling Degree Days 3 3  
Month to date cooling degree days 3 3  
Year to date cooling degree days 3007 2553  
Growing Degree Days 17 (Base 50)    
Moisture  
Dew Point 49 °F    
Average Humidity 59    
Maximum Humidity 90    
Minimum Humidity 27    
Precipitation  
Precipitation T in 0.17 in 4.90 in (1995)
Month to date precipitation T 0.17  
Year to date precipitation 63.31 56.16  
Sea Level Pressure  
Sea Level Pressure 30.02 in    
Wind  
Wind Speed 6 mph (NW)    
Max Wind Speed 13 mph    
Max Gust Speed 17 mph    
Visibility 10 miles    
Events      
T = Trace of Precipitation, MM = Missing Value Source: NWS Daily Summary

Daily Weather History Graph

Daily Weather History Graph

Search for Another Location

Airport:

Trip Planner

Search our weather history database for the weather conditions in past years. The results will help you decide how hot, cold, wet, or windy it might be!

Date:

Astronomy

Nov. 01, 2012 Rise Set
Actual Time 7:03 AM CDT 6:00 PM CDT
Civil Twilight 6:38 AM CDT 6:25 PM CDT
Nautical Twilight 6:10 AM CDT 6:53 PM CDT
Astronomical Twilight 5:42 AM CDT 7:22 PM CDT
Moon 8:05 PM CDT (11/1) 9:27 AM CDT (11/1)
Length of Visible Light 11h 46m
Length of Day
10h 56m
Waning Gibbous, 93% of the Moon is Illuminated
Nov 1
Waning Gibbous
Nov 6
Last Quarter
Nov 13
New
Nov 20
First Quarter
Nov 28
Full

Hourly Weather History & Observations

Time (CDT) Temp. Dew Point Humidity Pressure Visibility Wind Dir Wind Speed Gust Speed Precip Events Conditions
12:53 AM 66.0 °F 60.1 °F 81% 29.97 in 10.0 mi WSW 9.2 mph - N/A   Mostly Cloudy
1:53 AM 66.0 °F 60.1 °F 81% 29.97 in 10.0 mi WSW 8.1 mph - N/A   Scattered Clouds
2:53 AM 66.9 °F 60.1 °F 79% 29.97 in 10.0 mi West 10.4 mph - N/A   Overcast
3:53 AM 64.9 °F 60.1 °F 84% 29.98 in 10.0 mi North 6.9 mph - N/A   Overcast
4:53 AM 63.0 °F 59.0 °F 87% 29.98 in 10.0 mi NNW 5.8 mph - 0.00 in   Overcast
5:53 AM 61.0 °F 55.0 °F 81% 30.01 in 10.0 mi NNW 5.8 mph - N/A   Scattered Clouds
6:53 AM 59.0 °F 51.8 °F 77% 30.00 in 10.0 mi Calm Calm - N/A   Clear
7:53 AM 60.1 °F 51.1 °F 72% 30.04 in 10.0 mi NNE 5.8 mph - N/A   Clear
8:53 AM 63.0 °F 46.0 °F 54% 30.06 in 10.0 mi NE 6.9 mph - N/A   Clear
9:53 AM 64.9 °F 41.0 °F 42% 30.07 in 10.0 mi NE 5.8 mph - N/A   Clear
10:53 AM 69.1 °F 36.0 °F 30% 30.09 in 10.0 mi North 6.9 mph - N/A   Clear
11:53 AM 72.0 °F 37.0 °F 28% 30.08 in 10.0 mi North 6.9 mph - N/A   Clear
12:53 PM 73.0 °F 39.0 °F 29% 30.04 in 10.0 mi Calm Calm - N/A   Clear
1:53 PM 75.9 °F 39.9 °F 27% 30.01 in 10.0 mi NW 9.2 mph - N/A   Clear
2:53 PM 75.9 °F 42.1 °F 30% 29.99 in 10.0 mi WNW 3.5 mph - N/A   Clear
3:53 PM 73.0 °F 44.1 °F 35% 29.98 in 10.0 mi SSE 8.1 mph - N/A   Clear
4:53 PM 71.1 °F 46.9 °F 42% 29.99 in 10.0 mi South 9.2 mph - N/A   Clear
5:53 PM 66.9 °F 50.0 °F 54% 30.00 in 10.0 mi SSW 4.6 mph - N/A   Clear
6:53 PM 64.0 °F 50.0 °F 60% 30.02 in 10.0 mi SW 3.5 mph - N/A   Clear
7:53 PM 62.1 °F 50.0 °F 65% 30.03 in 10.0 mi Calm Calm - N/A   Clear
8:53 PM 61.0 °F 51.1 °F 70% 30.04 in 10.0 mi Calm Calm - N/A   Clear
9:53 PM 61.0 °F 50.0 °F 67% 30.05 in 10.0 mi Calm Calm - N/A   Clear
10:53 PM 60.1 °F 48.0 °F 64% 30.05 in 10.0 mi Calm Calm - N/A   Clear
11:53 PM 59.0 °F 46.9 °F 64% 30.05 in 10.0 mi Calm Calm - N/A   Clear